Location: Bouchavesnes-Bergen
(49.9859°N, 2.9203°E)
Time: 11:48:10
(UTC+00:00)

Lacrosse 5 - Pass Details

Date: 09 March 2021
Orbit: 718 x 721 km, 57.0° (Epoch: 02 April)

Event Time Altitude Azimuth Distance (km) Brightness Sun altitude
Exits shadow 04:19:23 38° 236° (SW) 1,093 2.3 -19.2°
Maximum altitude 04:19:42 38° 227° (SW) 1,085 2.3 -19.1°
Drops below altitude 10° 04:24:22 10° 160° (SSE) 2,195 4.4 -18.4°
Sets 04:26:51 0° 152° (SSE) 3,112 5.3 -18.0°
